Location: Cajon Junction
(34.3117°N, 117.4748°W)
Time: 15:52:43
(UTC+00:00)

Chandra Rocket (1) - Pass Details

Date: 18 April 2024
Orbit: 293 x 10894 km, 28.4° (Epoch: 20 May)

Event Time Altitude Azimuth Distance (km) Brightness Sun altitude
Exits shadow 12:05:03 24° 220° (SW) 979 2.6 -14.3°
Maximum altitude 12:06:25 37° 170° (S) 885 2.7 -14.0°
Drops below altitude 10° 12:12:18 10° 104° (ESE) 3,186 6.5 -12.9°
Sets 12:17:39 0° 98° (E) 5,496 8.0 -11.9°
